Presure
181 174 176 174 169 183 170 175 186 175 186 191 192 182 173 171 182 165 183 154 189 186 168 177 181 207 198 200 211 211 239 351 337 330 314 311 316 309 308 246 231 224 164 161
183 173 180 180 184 183 164 183 181 189 176 187 183 177 168 177 178 183 183 173 171 160 187 165 183 201 187 188 204 225 211 238 233 285 333 312 308 301 305 308 267 239 171 161
184 186 183 184 184 182 187 194 163 186 180 177 179 173 174 177 181 186 177 184 171 176 180 184 184 173 187 205 203 182 202 202 207 231 199 231 317 307 302 313 311 291 172 174
160 184 184 191 185 183 166 185 177 178 179 177 178 172 168 171 183 183 188 192 185 155 156 166 170 189 192 170 191 206 185 208 185 212 207 208 210 222 237 248 255 253 241 219
203 194 190 193 182 190 180 187 189 172 180 170 179 176 180 163 178 182 179 169 160 179 183 163 182 164 183 185 186 168 202 182 197 197 184 211 202 211 210 205 210 207 209 209
185 184 190 176 191 194 178 190 176 182 180 175 167 181 168 179 182 171 179 173 192 187 175 186 149 173 182 167 181 191 188 189 193 201 181 205 190 209 198 207 193 194 191 192
201 200 191 198 188 185 191 188 193 193 186 208 173 179 187 161 199 190 183 183 184 192 180 191 181 181 156 176 186 176 150 196 186 174 187 206 181 199 203 202 197 182 186 188
194 201 198 202 208 200 194 193 195 199 194 183 191 187 195 185 181 184 180 187 193 194 180 184 193 178 189 188 162 189 177 187 172 183 176 179 168 182 191 199 198 197 199 205
215 205 203 207 203 205 204 203 202 200 193 200 189 187 187 192 192 195 189 189 183 199 196 178 191 190 175 187 181 176 181 179 181 159 175 171 176 179 182 193 188 184 184 186
223 218 207 222 225 216 217 212 207 211 213 213 209 207 205 197 195 196 200 203 210 197 199 182 189 191 179 187 172 183 183 184 182 189 193 188 196 180 176 185 170 185 194 172
249 247 249 243 241 252 290 266 258 261 247 253 244 230 223 216 215 217 214 200 204 212 201 199 182 192 190 189 186 181 151 182 181 193 181 187 187 183 182 171 162 194 186 187
338 335 326 300 338 299 316 278 230 268 274 280 270 252 250 234 220 221 220 218 214 208 208 204 203 199 187 178 183 187 176 191 175 181 194 183 198 187 191 188 183 195 191 163
300 298 333 339 329 311 335 326 314 303 344 243 279 278 271 258 243 235 231 228 216 209 200 196 197 204 197 189 186 186 192 187 187 188 179 182 186 191 192 198 200 198 201 193
360 356 334 308 326 282 310 308 298 319 313 312 284 319 282 241 270 244 254 241 228 224 222 206 201 203 202 198 197 190 198 194 186 192 191 188 165 182 192 192 192 192 197 200
484 486 490 446 368 371 354 300 323 320 310 291 302 343 297 295 287 268 261 260 246 234 224 220 224 217 206 200 202 201 203 199 196 195 194 190 196 194 190 192 199 198 194 194
436 437 437 439 441 443 446 446 451 416 324 315 315 273 272 315 378 275 300 276 268 253 242 233 225 224 220 219 218 209 200 199 200 201 202 206 201 199 200 202 201 201 201 199
398 396 394 394 395 398 400 413 418 477 475 474 488 322 297 307 282 294 380 305 272 280 271 257 249 240 232 222 229 229 225 218 209 205 202 202 204 203 204 205 209 207 209 204
379 381 381 382 377 376 377 413 405 402 438 451 462 467 484 307 293 275 273 279 317 326 278 282 280 272 259 250 247 235 231 231 229 227 225 222 222 221 221 223 222 218 214 216
344 346 350 356 359 358 360 366 382 398 433 432 442 441 444 457 396 361 261 287 298 278 306 330 334 318 265 275 270 261 251 250 245 239 236 233 232 232 233 233 228 226 228 232
328 348 369 356 341 339 341 346 353 388 417 423 422 420 422 427 440 422 354 346 331 267 260 260 262 330 336 283 272 284 279 268 260 255 249 249 248 250 253 257 252 248 244 239
328 321 322 334 349 357 341 329 332 369 406 403 404 404 402 410 415 417 394 345 332 333 282 339 333 269 272 330 327 324 324 311 304 293 290 288 286 284 280 279 277 275 279 285
256 317 319 391 420 348 358 351 327 326 393 399 394 390 391 391 399 407 399 374 368 326 328 334 339 334 257 248 280 341 333 327 325 324 321 313 303 282 288 293 290 294 291 277
203 417 410 403 388 404 399 391 400 383 380 381 378 381 382 383 383 385 392 367 360 362 354 326 327 331 331 328 323 256 253 297 318 340 339 337 337 338 338 337 338 340 342 345
406 399 399 396 392 390 384 385 386 374 372 368 368 368 370 373 373 375 372 390 381 356 349 343 342 322 324 327 325 323 321 319 316 313 313 315 276 317 316 315 323 351 356 336
396 399 391 387 384 380 376 378 381 387 383 376 368 363 362 361 364 366 369 370 368 371 379 375 367 358 352 330 315 317 318 315 314 315 315 314 313 312 314 346 361 424 413 407
386 382 381 377 375 374 369 370 372 380 384 382 378 379 378 371 363 351 349 352 358 363 366 365 367 369 375 377 381 385 389 393 395 394 392 393 389 397 396 400 391 390 388 384
369 371 366 368 364 364 367 360 361 363 357 362 365 366 361 359 360 359 357 354 352 352 353 353 353 353 356 358 360 361 361 361 362 362 364 369 371 375 374 370 368 364 362 392
Wind_Speed
86 84 82 79 73 76 69 72 74 67 67 63 57 55 53 45 54 29 49 35 52 38 20 25 8 40 23 20 20 13 19 16 19 26 30 35 42 51 59 85 81 79 72 74
93 83 89 84 80 78 70 72 72 73 68 64 61 56 55 58 53 56 51 32 28 29 40 23 10 33 9 5 19 21 12 17 13 10 17 22 29 38 46 53 73 76 74 81
98 94 90 89 85 79 77 80 64 72 68 68 64 60 60 62 64 64 55 54 43 35 33 31 28 20 14 35 25 12 11 7 5 7 13 28 23 30 32 41 46 49 74 78
69 96 95 93 83 80 78 79 72 71 69 71 69 64 62 64 72 64 63 65 58 46 42 39 33 47 34 29 20 30 16 19 15 2 8 9 12 14 17 25 34 39 52 52
103 99 94 95 89 92 85 84 79 75 72 70 73 69 74 63 70 67 65 56 50 58 54 44 47 39 36 35 30 37 34 25 13 10 25 11 19 19 24 31 32 40 47 47
97 95 99 91 99 100 86 92 81 78 76 74 70 78 71 77 71 67 69 64 67 66 54 58 47 52 50 46 43 39 34 29 24 30 33 16 32 29 33 33 46 49 53 61
110 109 102 107 100 99 103 96 101 97 86 92 80 83 83 66 78 72 72 72 70 73 66 65 60 56 50 54 53 51 55 44 38 45 29 30 47 36 35 40 46 57 60 63
106 114 108 114 122 113 106 103 102 104 91 88 91 91 92 87 83 79 76 77 76 76 73 68 70 59 62 58 60 57 53 55 48 44 52 49 57 50 44 41 45 49 54 53
133 119 115 124 117 121 122 121 119 115 93 110 96 98 99 100 97 95 88 86 80 82 80 73 74 73 69 65 62 63 65 62 59 65 58 57 56 56 57 58 55 64 64 68
134 131 124 139 140 129 130 122 119 125 127 122 120 119 116 106 100 95 93 97 93 87 84 79 79 78 74 76 64 71 74 72 69 71 65 57 63 66 69 67 73 68 69 71
136 136 137 136 139 136 120 125 118 125 128 116 120 123 120 117 116 112 107 98 93 92 90 89 83 82 84 82 82 79 68 81 76 80 71 65 73 76 74 80 75 76 77 78
101 99 101 108 106 113 117 116 124 115 113 116 119 112 112 112 110 111 109 105 100 97 91 90 90 89 86 77 82 90 80 89 82 82 83 71 81 80 82 81 78 84 84 89
98 94 100 100 100 102 102 108 115 115 110 112 113 118 118 113 113 113 108 105 106 100 95 92 94 94 93 93 91 94 97 94 92 96 80 82 85 88 87 93 95 95 96 93
90 90 92 97 98 93 98 101 101 104 109 111 113 117 117 108 116 110 113 111 110 110 109 103 102 102 101 101 104 102 105 102 97 101 98 97 80 88 97 97 94 95 98 101
39 41 42 57 84 85 87 93 99 99 101 99 100 101 113 114 122 115 113 115 116 114 113 114 113 109 108 108 113 111 111 108 109 108 106 106 110 109 106 107 108 108 105 105
29 29 31 33 37 40 43 44 48 69 99 94 94 99 100 101 92 114 120 120 120 119 118 118 118 118 115 116 118 117 108 110 112 114 116 117 117 114 115 117 116 114 115 114
28 30 31 33 34 36 39 40 44 31 34 37 37 88 97 98 101 102 85 112 118 120 124 124 125 123 122 120 119 119 120 122 121 120 117 117 120 119 119 119 121 121 122 121
26 27 30 31 32 33 35 32 37 41 33 30 31 32 31 88 99 100 98 99 99 102 122 120 125 126 127 126 124 123 121 122 124 125 126 126 126 126 126 125 124 123 123 126
27 28 29 29 30 30 31 32 31 31 26 26 26 26 28 30 60 75 98 100 95 106 102 100 100 108 121 127 127 127 125 125 127 128 129 129 130 130 130 129 127 127 128 130
28 28 28 31 31 31 30 30 30 27 22 21 23 22 25 28 33 43 71 77 85 103 103 105 106 99 99 119 120 122 126 128 128 128 128 129 129 130 130 130 131 130 130 129
30 30 31 30 29 30 30 30 29 25 17 17 18 20 21 24 30 37 47 69 78 83 96 83 87 107 104 91 95 100 103 112 120 125 127 128 127 126 126 127 128 128 127 126
28 31 32 22 15 28 27 27 28 26 14 13 16 17 19 21 23 31 40 51 56 79 78 77 78 82 102 101 95 82 88 96 101 105 108 112 114 117 117 118 118 118 117 116
33 14 13 14 16 12 13 13 11 13 13 13 14 14 17 19 22 27 35 50 55 57 63 75 75 75 76 81 85 104 103 99 94 86 88 92 94 95 96 98 98 98 100 100
11 11 10 9 8 9 10 10 11 13 13 13 13 13 15 17 20 23 29 31 44 56 60 64 66 73 75 77 79 81 82 84 87 89 90 91 101 91 92 92 91 93 94 93
8 6 4 4 6 7 8 8 9 10 13 14 15 15 15 15 17 19 23 27 32 36 40 48 56 61 64 70 74 75 77 79 80 81 82 83 84 85 86 76 71 52 54 53
4 3 3 1 2 2 3 3 4 3 4 6 8 9 12 15 18 20 21 23 24 27 31 35 39 43 45 47 49 49 49 49 49 49 51 51 52 48 48 46 47 46 45 44
8 8 7 6 5 5 5 3 3 3 2 2 2 3 5 7 10 13 16 19 23 25 27 29 32 34 35 36 38 39 41 42 43 43 43 41 41 40 40 40 39 39 39 33
Wind_Direction
287 290 292 292 291 292 291 295 299 297 301 304 307 306 306 306 315 284 318 280 324 323 286 321 335 354 19 12 24 24 25 212 218 223 224 223 222 225 229 229 231 234 230 236
286 284 288 288 289 288 285 293 292 293 294 302 302 297 296 304 305 309 309 287 276 264 314 267 323 341 317 350 7 12 17 22 26 201 220 221 225 226 229 229 231 234 231 235
283 283 283 284 285 284 288 292 284 288 290 291 294 292 298 301 302 304 301 303 287 286 289 300 299 256 319 331 333 248 352 322 350 20 244 235 212 217 225 228 229 228 233 238
279 281 282 283 280 280 278 285 280 283 287 288 290 287 289 292 299 299 298 299 297 262 274 270 261 306 294 249 300 314 236 335 243 272 240 236 232 226 210 209 216 219 228 235
278 278 279 284 280 283 276 281 281 275 280 278 285 285 289 283 291 293 291 284 281 290 290 279 281 247 284 291 284 247 307 230 289 262 243 240 234 224 225 228 232 235 240 240
273 274 278 276 279 281 275 280 273 275 278 276 276 281 276 281 284 282 285 282 284 283 277 285 270 278 281 260 279 288 276 269 273 290 240 270 245 243 235 233 235 236 239 242
276 276 274 277 274 275 278 276 279 278 276 278 275 277 279 275 282 280 280 279 282 278 278 278 276 279 255 276 282 264 249 281 259 247 246 284 250 264 254 249 252 245 247 250
275 276 275 276 278 277 276 275 276 277 274 272 276 275 278 275 273 275 275 276 275 275 273 273 270 274 273 273 250 278 260 276 244 251 242 251 248 255 266 263 260 258 258 258
273 275 275 276 275 275 275 275 275 276 272 277 273 274 275 276 275 276 273 272 267 271 265 267 269 269 268 273 269 266 265 266 260 252 239 238 246 254 262 269 254 256 253 252
270 271 272 273 273 273 273 272 273 273 274 274 273 272 273 273 273 273 273 274 272 267 264 263 264 263 266 268 258 269 267 268 267 269 266 267 271 257 262 263 256 266 266 264
269 269 269 269 269 271 262 266 263 264 270 267 266 268 269 270 271 268 268 268 268 263 260 258 261 259 261 262 264 266 263 266 266 269 259 264 266 262 265 249 265 269 269 270
265 261 260 263 257 260 255 261 267 262 260 257 257 259 259 263 265 264 264 264 261 263 259 256 256 255 258 260 263 263 260 265 260 265 266 265 265 268 269 268 267 270 270 267
268 264 263 263 261 260 256 255 254 254 253 263 255 255 255 253 256 258 258 257 259 260 258 258 256 254 253 257 257 259 259 261 263 265 265 266 267 267 267 266 266 267 267 268
265 265 266 265 260 262 261 258 257 255 254 252 252 250 251 255 252 254 252 251 254 256 255 254 255 255 253 252 253 256 256 257 261 263 265 267 265 268 267 267 267 268 268 268
275 274 272 265 261 260 260 258 258 257 256 254 252 252 250 249 250 251 251 250 248 250 253 255 254 252 252 253 252 253 254 256 257 260 262 264 264 265 268 269 267 268 269 270
278 275 272 270 269 268 267 268 267 261 254 252 252 251 252 250 249 248 248 251 249 248 249 250 253 254 252 251 250 252 255 256 257 258 259 259 261 263 265 266 267 268 269 270
278 276 273 271 270 271 270 267 267 271 268 265 264 247 248 248 248 248 246 248 250 250 249 249 249 250 251 254 254 253 253 253 256 258 260 262 262 263 264 265 266 268 269 271
280 278 278 277 275 274 275 273 268 267 272 269 265 261 251 246 244 246 247 247 247 246 248 249 250 251 251 251 253 254 255 255 256 257 258 260 261 263 264 265 266 267 269 269
284 282 281 280 276 274 274 274 275 273 271 269 266 255 246 235 237 239 247 245 245 247 247 247 248 249 251 252 253 254 255 255 255 256 258 260 262 263 264 265 266 267 269 269
286 287 284 280 276 276 275 274 275 277 270 263 262 255 244 234 225 221 237 238 241 246 247 249 251 248 249 253 254 256 256 257 256 257 258 259 261 263 265 267 267 268 269 271
284 287 286 284 279 274 270 272 275 277 270 266 256 248 241 232 228 218 220 234 239 242 246 243 244 251 253 251 253 255 256 257 258 259 261 262 264 265 266 267 268 269 271 274
286 286 285 278 270 273 271 269 270 271 261 258 251 246 239 231 226 220 216 219 226 239 241 242 244 247 252 255 255 251 253 256 258 260 262 264 265 267 268 269 270 272 273 275
284 297 283 273 269 257 257 257 238 247 255 252 248 243 237 234 227 222 219 220 224 228 233 243 244 245 246 248 251 256 259 258 259 259 261 263 265 268 269 271 273 274 275 276
311 297 282 265 258 250 249 245 235 241 239 242 242 237 233 231 229 225 223 224 225 230 234 238 240 246 248 249 251 253 256 258 260 262 264 266 269 270 271 273 274 273 275 277
313 301 276 245 232 229 239 242 239 234 237 240 240 240 240 233 231 232 231 230 230 231 234 236 240 243 246 249 253 255 257 259 261 263 265 266 267 269 270 273 274 277 277 278
12 25 55 115 192 221 231 233 232 233 227 233 234 232 228 227 227 230 233 236 237 239 240 242 244 246 249 252 255 258 261 263 264 265 266 268 269 271 272 273 275 276 276 277
53 61 72 82 89 96 99 106 114 131 171 171 183 192 204 216 223 227 231 233 236 240 243 245 248 250 253 254 255 257 258 261 263 265 267 267 268 271 272 274 274 274 275 273